COSMOS 1275 DEB, 42200

Orbit data source: Space-Track

COSMOS 1275 DEB, 42200 is space debris in LEO originally from a launch on Thu, 04 Jun 1981 UTC launched from the Plesetsk Missile And Space Complex (PKMTR). Debris objects in space refer to the collection of defunct objects orbiting the Earth. Examples of debris include non-operational satellites, rocket bodies, and fragments generated from explosions, collisions, or faulty payload assembly.

Loading next visibility...
Identifier
42200, 1981-053TQ
Orbit
LEO
Country
Flag of CISCIS
Related business
Manufacturer
Unknown
Mission
Spacecraft
Bus & Motor
Unknown
Mass
Unknown
Launch date (UTC)
1981-06-04 (45 years ago)
Launch vehicle
Unknown
Launch site
Plesetsk Missile And Space Complex (PKMTR)
Object type
Payload
Rocket body
Debris
Shape & HBR
Unknown shape, 0.1 m
Radar Cross Section
Small (<0.1 m²)

Expand to show TLE details & history
Last TLE update: 2 days ago

TLE from 2 days ago
0 COSMOS 1275 DEB
1 42200U 81053TQ  26144.29505731  .00002055  00000-0  11397-2 0  9999
2 42200  82.9816 148.5507 0067129 225.8018 133.7631 14.09673633638378
Epoch: 2026-05-24T07:04Z
TLE epoch observation values (Epoch: 2026-05-24T07:04:52.951Z)
Latitude
-0.00011°
Longitude
160.4308°
Altitude
897.224 km
Speed
7.386 km/s
True Right ascension
09h 54m 12s
True Declination
0° 00' 00"
Sunlit
Object was in daylight at epoch
Visualization orbit readout
Latitude
Unknown
Longitude
Unknown
Altitude
Unknown
Speed
Unknown
Apparent Right ascension
Unknown
Apparent Declination
Unknown
Sunlit
N/A
Visualization observer readout
Local Sidereal Time
07:19:37
Azimuth
Unknown
Elevation
Unknown
Doppler factor
Unknown
Orbital elements
Apogee altitude
906.161 km
Perigee altitude
809.015 km
Semi-major axis
7,235.725 km
Eccentricity
0.00671
Inclination
82.9816°
RAAN
148.5507°
Arg. of periapsis
225.8018°
True anomaly
134.31544°
Mean anomaly
133.7631°
Eccentric anomaly
134.03959°
Mean motion
3.52631 °/min
Orbital period
102.09 mins
BSTAR
0.0011397
Loading maneuver chart data...
Computing Atmospheric mass density...
Loading historical data...
Loading historical data...
Loading historical data...
Loading historical data...
Loading historical data...
Loading historical data...
Loading historical data...

Documentation

Showing up to 5 results
|